Regional Weather Roundup
Issued by NWS

Home | Current Version | Previous Version | Text Only | Print | Product List | Glossary Off
Versions: 1 2 3 4 5 6 7 8 9 10 11 12 13 14 15 16 17 18 19 20 21 22 23 24 25 26 27 28 29 30 31 32 33 34 35 36 37 38 39 40 41 42 43 44 45 46 47 48 49 50

000
ASUS44 KMEG 181210
RWRTN
TENNESSEE HOURLY STATE WEATHER ROUNDUP
NATIONAL WEATHER SERVICE MEMPHIS TN
600 AM CST SUN FEB 18 2018

TNZ002-004-019-021-049-052-054-088>092-181300-
WEST TENNESSEE

CITY           SKY/WX    TMP DP  RH WIND       PRES   REMARKS
MEMPHIS INTL   FAIR      36  36 100 E5        30.28R WCI  32
NWS MEMPHIS      N/A     37 N/A N/A MISG        N/A
JACKSON        FOG       32  31  96 CALM      30.31R VSB 1/2
DYERSBURG      FOG       34  34 100 E3        30.31F VSB 1/2
COVINGTON      FOG       36  36 100 E3        30.31S VSB 0
UNION CITY     FOG       30  30 100 CALM      30.31F VSB 1/4
BOLIVAR        CLEAR     34  32  93 N5        30.29S FOG     WCI  30
PARIS          PTCLDY    30  30 100 E5        30.30F FOG     WCI  25
HUNTINGDON     FOG       30  30 100 NE5       30.30F VSB 0   WCI  25
LEXINGTON      FOG       30  30 100 CALM      30.31R VSB 1/4
SELMER         CLEAR     37  36  93 NE7       30.29S WCI  32
SAVANNAH       CLEAR     32  32 100 CALM      30.30S FOG
$$

TNZ008-025-027-028-033-062-065-066-181300-
NORTH MIDDLE TENNESSEE

CITY           SKY/WX    TMP DP  RH WIND       PRES   REMARKS
NASHVILLE      FAIR      35  32  88 N6        30.34R WCI  30
PORTLAND       CLEAR     34  32  93 CALM      30.32F
CLARKSVILLE    FOG       28  26  92 CALM      30.33R VSB 1/2
SMYRNA         FAIR      36  35  96 NE7       30.34R WCI  30
COOKEVILLE     CLEAR     32  32 100 CALM      30.30R
GALLATIN       PTCLDY    34  32  93 N5        30.36S WCI  30
CROSSVILLE     FAIR      34  31  88 NE5       30.27R WCI  30
$$

TNZ061-075-076-078-094-096-097-181300-
SOUTH MIDDLE TENNESSEE

CITY           SKY/WX    TMP DP  RH WIND       PRES   REMARKS
FAYETTEVILLE   CLEAR     36  36 100 N9        30.27R WCI  29
TULLAHOMA      CLEAR     36  34  93 N5        30.28R WCI  32
WINCHESTER     CLEAR     36  36 100 NE5       30.28R WCI  32
MCMINNVILLE    CLEAR     36  32  87 NE7       30.29R WCI  30
COLUMBIA       MOCLDY    36  36 100 CALM      30.30R
SHELBYVILLE    CLEAR     36  34  93 N9        30.30S WCI  29
$$

TNZ017-018-042-046-047-181300-
NORTHEAST TENNESSEE

CITY           SKY/WX    TMP DP  RH WIND       PRES   REMARKS
TRI CITIES     FAIR      37  36  96 N3        30.28R
ELIZABETHTON   FAIR      37  37 100 CALM      30.27R
$$

TNZ012-013-036-069-073-074-181300-
CENTRAL EAST TENNESSEE

CITY           SKY/WX    TMP DP  RH WIND       PRES   REMARKS
KNOXVILLE      FAIR      39  36  89 N7        30.27R WCI  34
OAK RIDGE      FAIR      36  35  96 CALM      30.31R
DOWNTOWN KNOXV CLEAR     39  37  93 N3        30.30R
GATLINBURG     FOG       37  37 100 CALM      30.28R VSB 1/4
MORRISTOWN     CLEAR     39  34  81 N9        30.28R WCI  33
$$

TNZ083-085-099-181300-
SOUTHEAST TENNESSEE

CITY           SKY/WX    TMP DP  RH WIND       PRES   REMARKS
CHATTANOOGA    MOCLDY    42  36  79 N6        30.27R
$$

SKY/WX REPORTED AS FAIR MEANS FEW OR NO CLOUDS BELOW
12 THOUSAND FEET.





USA.gov is the U.S. government's official web portal to all federal, state and local government web resources and services.